Location: *
(6.0000°S, 32.3997°W)
Time: 19:47:35
(UTC+00:00)

Meteor 1-16 Rocket - Pass Details

Date: 01 April 2020
Orbit: 790 x 907 km, 81.2° (Epoch: 28 May)

Event Time Altitude Azimuth Distance (km) Brightness Sun altitude
Rises 21:37:50 0° 179° (S) 3,309 7.3 -21.5°
Reaches altitude 10° 21:40:16 10° 175° (S) 2,367 6.4 -22.1°
Maximum altitude 21:45:30 61° 95° (E) 891 4.0 -23.4°
Enters shadow 21:46:40 49° 45° (NE) 1,014 4.3 -23.7°
Exits shadow 21:51:14 - 14° (NNE) 2,551 6.6 -24.8°
Sets 21:53:06 0° 12° (NNE) 3,279 7.2 -25.3°
